This is the latest recevied weather packets stored in our database for station/object W9KHP-1. If no packets are shown the sender has not sent any weather packets the latest 1 day(s).
| Time | Temp. | Humidity | Pressure | Rain* | Wind** | Luminosity | Snow |
|---|---|---|---|---|---|---|---|
| 1778044755 | 9.44° C | 99% | 1011.2 hPa | 0 mm | - | 0 W/m² | - |
| 1778044452 | 9.44° C | 99% | 1011.3 hPa | 0 mm | - | 0 W/m² | - |
| 1778044149 | 9.44° C | 99% | 1011.1 hPa | 0 mm | - | 0 W/m² | - |
| 1778043240 | 9.44° C | 99% | 1011.2 hPa | 3.56 mm | - | 0 W/m² | - |
| 1778042937 | 9.44° C | 99% | 1011 hPa | 4.83 mm | - | 0 W/m² | - |
| 1778042331 | 9.44° C | 99% | 1010.9 hPa | 3.05 mm | - | 0 W/m² | - |
| 1778042028 | 9.44° C | 99% | 1010.6 hPa | 4.83 mm | - | 0 W/m² | - |
| 1778041727 | 9.44° C | 99% | 1010.5 hPa | 1.27 mm | - | 0 W/m² | - |
| 1778041124 | 10° C | 99% | 1010.7 hPa | 0 mm | - | 0 W/m² | - |
| 1778040820 | 10° C | 99% | 1010.5 hPa | 0 mm | - | 0 W/m² | - |
| 1778040215 | 10° C | 99% | 1010.6 hPa | 1.78 mm | - | 0 W/m² | - |
| 1778039911 | 10° C | 99% | 1010.6 hPa | 3.05 mm | - | 0 W/m² | - |
| 1778039609 | 10° C | 99% | 1010.8 hPa | 3.05 mm | - | 0 W/m² | - |
| 1778039306 | 10° C | 99% | 1010.8 hPa | 0 mm | - | 0 W/m² | - |
| 1778039003 | 10° C | 99% | 1010.2 hPa | 0 mm | - | 0 W/m² | - |
| 1778038700 | 10° C | 99% | 1009.9 hPa | 0 mm | - | 0 W/m² | - |
| 1778038397 | 10° C | 99% | 1009.8 hPa | 0 mm | - | 0 W/m² | - |
| 1778038093 | 10° C | 99% | 1009.9 hPa | 0 mm | - | 0 W/m² | - |
| 1778037487 | 10° C | 99% | 1010 hPa | 0 mm | - | 0 W/m² | - |
| 1778036277 | 11.11° C | 99% | 1009.8 hPa | 1.78 mm | - | 0 W/m² | - |
| 1778035973 | 10.56° C | 99% | 1010 hPa | 1.27 mm | - | 0 W/m² | - |
| 1778035670 | 11.11° C | 99% | 1009.9 hPa | 1.27 mm | - | 0 W/m² | - |
| 1778035367 | 11.11° C | 99% | 1009.7 hPa | 1.78 mm | - | 0 W/m² | - |
| 1778035063 | 11.11° C | 99% | 1009.6 hPa | 1.78 mm | - | 0 W/m² | - |
| 1778034760 | 11.11° C | 99% | 1009.3 hPa | 1.27 mm | - | 0 W/m² | - |
* Rain latest hour (hover to see other rain measurements)
** Current wind speed in m/s (hover to see current wind gust speed)